Wind_Speed
39 39 39 39 39 39 39 40 41 42 43 45 47 49 51 52 54 54 54 53 53 53 53 52 52 50 47 45 44 43 43 42 42 41 40 38 38 36 34 32 30 27 24
40 40 40 40 40 40 41 42 43 44 45 46 48 50 53 55 56 57 58 58 58 57 57 57 57 56 53 51 48 45 45 45 44 43 42 40 40 39 37 35 32 30 27
42 42 41 41 42 42 43 43 44 45 46 48 50 52 53 55 57 59 61 61 62 62 62 61 61 61 60 57 54 51 48 47 46 46 44 43 42 41 40 38 35 32 29
43 43 43 42 42 43 43 44 45 46 48 49 50 51 53 55 57 59 60 61 62 63 63 63 64 64 64 63 60 57 54 51 48 48 47 46 44 43 42 40 38 35 33
43 44 43 43 43 43 44 45 46 48 49 49 50 51 52 52 53 55 57 58 58 60 61 61 65 67 67 67 66 62 60 57 54 51 49 48 47 45 43 42 41 39 36
44 44 44 43 43 44 45 46 47 48 48 49 49 48 47 47 47 49 52 54 56 58 59 59 61 66 68 69 69 67 64 61 58 55 52 51 49 47 45 44 43 42 39
45 45 44 44 44 44 45 46 47 48 47 47 46 44 43 43 43 45 46 48 50 53 55 57 58 60 64 68 70 70 68 65 62 59 55 52 49 49 48 46 45 44 42
46 45 44 44 44 44 46 47 47 47 45 44 42 41 40 39 40 41 41 42 43 46 50 52 54 56 59 63 66 68 68 67 64 61 58 55 52 50 49 48 47 45 44
46 45 45 44 44 44 46 46 46 45 43 41 39 38 37 36 35 33 32 33 34 38 42 46 48 50 53 57 60 63 65 65 64 62 61 58 54 51 49 49 47 45 44
46 45 44 43 44 44 45 45 44 42 41 39 37 36 34 31 28 25 23 23 25 30 35 40 44 45 47 50 53 56 60 62 62 61 60 61 57 51 48 49 47 45 45
46 45 43 43 43 44 44 43 42 41 39 37 35 34 31 27 23 20 16 16 20 25 30 34 38 41 43 45 47 50 54 57 60 61 60 60 58 55 51 48 47 46 44
46 44 43 42 43 44 43 41 40 39 37 36 33 30 27 22 18 14 11 11 15 20 25 29 32 35 38 40 42 45 48 52 55 57 59 59 57 54 51 49 46 45 45
45 43 42 42 42 43 41 39 38 37 36 34 31 27 23 19 14 10 7 7 13 18 21 24 27 30 33 35 38 41 44 47 50 53 55 56 55 55 55 51 46 44 44
45 43 42 41 41 42 40 38 37 35 34 32 29 24 19 15 10 6 4 6 12 17 19 21 24 27 28 30 33 37 40 42 45 48 50 52 53 54 54 52 49 46 43
44 42 41 41 41 41 39 37 35 34 32 30 26 22 17 12 8 5 3 6 12 15 17 18 20 23 25 27 29 31 35 37 40 44 47 49 50 51 51 50 49 45 41
44 42 40 40 40 40 38 36 34 33 30 28 25 20 15 11 7 2 3 6 11 14 16 17 18 20 22 24 26 27 30 34 36 39 42 45 49 50 50 50 47 42 40
43 41 39 39 39 39 36 34 32 30 28 26 23 19 14 10 5 1 3 6 10 13 15 16 17 19 22 23 24 25 27 30 33 36 39 42 46 48 49 49 47 43 40
43 40 39 38 38 37 35 33 31 28 26 23 21 17 13 8 4 2 4 7 9 11 13 14 16 18 20 21 22 23 24 27 30 33 37 41 43 45 45 46 46 44 42
42 39 37 37 37 35 33 31 29 27 25 22 19 15 11 7 3 1 3 5 8 10 11 12 14 15 18 19 20 21 22 24 27 31 35 39 43 44 44 44 44 43 42
40 38 36 35 35 34 33 30 28 26 24 21 17 14 11 7 3 0 2 4 6 9 11 12 13 15 16 17 18 20 21 23 26 30 35 39 43 44 44 44 43 42 41
39 37 35 34 34 33 32 30 27 25 23 21 17 14 11 8 4 2 2 4 6 8 10 12 14 15 16 17 18 20 22 23 25 29 33 39 43 45 45 46 45 44 42
38 36 34 32 32 32 31 29 27 25 22 20 17 14 11 8 5 3 3 4 6 8 9 11 13 15 17 18 18 20 22 24 26 29 32 38 43 46 48 47 46 44 43
36 34 33 31 30 30 29 27 26 25 23 20 17 14 11 8 7 5 5 5 5 7 8 10 12 13 14 16 18 19 21 23 26 30 33 38 42 45 46 45 45 44 42
35 33 31 29 28 28 27 26 25 24 22 20 17 15 12 10 8 7 6 6 7 8 9 9 10 11 13 14 16 17 19 22 26 31 34 37 41 45 45 45 45 43 41
33 31 29 27 26 25 25 25 24 22 20 19 18 16 13 11 9 8 7 6 5 6 6 7 9 10 11 13 15 16 18 21 25 31 35 39 42 43 45 45 45 43 40
31 29 27 25 24 23 23 22 22 21 19 19 18 17 14 12 11 9 7 6 5 2 2 5 7 8 9 11 13 16 19 23 27 31 36 40 41 42 44 45 44 42 39
Wind_Direction
314 311 308 304 301 298 295 293 291 289 287 285 282 280 277 275 272 269 266 263 260 255 252 249 248 247 245 243 238 232 228 225 224 223 222 220 218 217 215 216 216 216 218
316 314 310 307 304 301 299 296 295 293 290 287 284 281 278 275 271 268 265 262 259 254 250 247 245 244 242 241 239 234 229 226 225 224 223 222 221 219 217 217 217 217 219
318 316 312 309 306 304 301 300 298 297 294 291 288 285 281 276 272 268 265 262 258 254 249 245 243 241 239 238 237 235 232 228 226 225 224 223 222 221 220 219 218 218 220
319 317 314 311 309 307 305 304 303 301 298 295 293 289 285 280 275 270 266 262 258 253 249 244 240 239 237 237 235 234 233 229 226 225 225 225 223 222 221 220 220 220 221
321 319 316 314 312 310 309 308 307 305 303 300 297 293 289 284 278 272 266 261 255 251 247 243 238 236 235 235 234 233 232 231 229 226 226 225 224 223 222 221 221 221 222
323 321 319 317 315 314 313 312 311 309 307 304 302 298 294 288 281 275 267 261 254 249 245 240 237 234 233 232 233 232 231 231 231 228 226 225 225 224 223 222 222 222 223
326 324 321 320 319 318 317 316 315 314 311 309 306 302 298 291 285 279 271 261 254 247 241 237 235 233 231 230 231 231 230 230 230 229 228 225 225 224 223 222 222 222 223
328 326 324 323 322 321 321 320 319 318 316 313 311 306 302 296 290 283 273 263 253 245 238 234 232 231 230 229 229 229 230 229 229 229 229 227 226 224 222 222 222 221 222
330 328 326 325 325 325 325 324 323 322 320 318 315 311 308 303 297 289 275 263 250 240 234 229 227 228 228 227 227 227 227 227 227 227 227 227 226 224 224 223 223 222 222
331 330 329 328 328 328 328 328 327 326 324 322 319 316 313 309 303 295 279 260 243 233 226 222 221 223 223 223 224 225 225 225 226 226 224 224 224 222 222 223 222 222 220
333 332 331 330 331 331 331 330 331 330 328 326 323 321 318 313 307 298 281 258 236 224 217 215 218 220 221 221 222 222 223 225 224 224 224 223 223 223 223 224 223 223 221
336 334 333 333 333 333 333 333 333 333 333 331 328 325 323 318 313 303 283 255 228 214 209 210 212 214 217 219 219 219 221 222 222 223 223 223 223 222 221 219 220 220 222
337 336 336 336 335 336 336 335 336 336 335 335 334 331 328 324 318 305 283 238 209 200 201 204 207 210 212 214 215 215 217 218 220 220 221 221 222 222 222 220 221 220 220
339 338 338 338 338 338 338 338 338 338 338 338 339 337 334 330 325 309 275 215 193 188 190 196 201 202 203 207 208 210 212 214 216 216 217 218 218 218 220 221 222 220 219
341 340 340 340 340 341 341 341 340 340 341 342 343 343 342 336 326 303 247 202 192 189 189 192 195 197 198 200 203 206 208 211 213 212 213 216 217 217 217 217 220 222 223
342 341 342 343 343 343 343 343 342 342 344 345 347 347 348 347 343 317 208 191 191 190 190 189 190 191 193 196 199 202 203 206 207 208 208 211 214 217 218 219 220 223 224
343 343 343 344 345 346 346 346 345 345 346 348 350 351 352 355 359 30 158 168 175 179 183 184 185 187 188 191 193 195 197 200 203 204 205 207 210 213 216 217 219 221 222
344 344 345 346 347 348 349 349 349 347 349 351 354 357 359 6 23 86 150 169 173 177 182 184 185 186 188 190 191 193 194 197 200 202 202 203 205 207 210 213 215 219 221
344 345 345 347 349 351 351 351 351 350 350 352 354 357 1 7 23 99 158 180 191 194 195 195 195 194 192 191 192 193 195 197 199 200 200 200 201 203 205 207 209 212 215
344 345 346 348 349 352 353 352 352 352 351 352 353 354 355 355 355 274 186 193 200 202 206 209 211 211 208 205 204 204 202 202 202 201 199 198 198 198 199 201 205 206 208
344 345 346 347 349 352 354 355 355 355 354 353 353 354 351 346 333 296 237 221 216 212 215 217 217 216 215 215 214 214 213 210 207 202 200 199 197 196 195 197 199 201 204
344 345 346 348 349 352 355 356 358 358 358 356 354 355 353 352 339 301 274 252 238 228 224 222 220 222 222 221 221 221 218 215 211 205 201 197 194 193 193 194 195 198 201
343 345 346 348 349 352 356 358 359 360 0 1 358 355 352 349 341 323 292 266 251 238 233 231 229 227 224 224 223 221 217 212 209 204 200 195 192 191 190 192 193 195 198
342 344 345 347 349 352 356 357 359 0 2 3 2 360 355 350 344 333 317 291 268 256 249 237 227 224 226 228 224 219 213 209 206 200 195 190 187 186 187 189 190 192 195
341 343 344 346 348 351 355 358 0 2 4 6 5 3 359 352 346 336 327 316 295 265 243 226 220 222 224 220 213 207 204 200 196 193 189 184 181 183 183 184 186 189 192
339 341 343 344 346 349 354 359 2 4 6 7 7 5 4 0 355 346 335 331 329 307 240 221 215 211 207 201 195 193 189 184 182 182 181 180 180 181 182 183 185 189 191
Height
5739 5733 5727 5722 5718 5713 5710 5706 5703 5700 5697 5694 5691 5688 5686 5685 5684 5684 5685 5687 5691 5696 5700 5705 5710 5715 5720 5725 5730 5736 5743 5750 5756 5763 5769 5775 5780 5787 5792 5798 5803 5807 5811
5729 5723 5717 5712 5707 5702 5698 5694 5690 5686 5683 5679 5675 5672 5669 5667 5665 5665 5665 5668 5671 5676 5682 5688 5694 5700 5706 5712 5718 5725 5732 5739 5746 5753 5759 5766 5771 5778 5784 5790 5796 5801 5805
5719 5713 5707 5701 5696 5690 5686 5681 5676 5672 5667 5662 5658 5654 5650 5647 5645 5644 5644 5646 5649 5654 5661 5668 5675 5682 5690 5697 5704 5712 5720 5727 5735 5742 5749 5756 5762 5769 5776 5782 5788 5794 5798
5710 5703 5697 5690 5684 5679 5673 5667 5662 5656 5651 5645 5639 5634 5629 5625 5622 5621 5620 5622 5625 5630 5637 5645 5654 5663 5672 5680 5688 5697 5706 5714 5722 5731 5738 5745 5753 5760 5766 5773 5780 5786 5791
5701 5693 5686 5680 5673 5666 5660 5654 5647 5640 5633 5627 5620 5614 5608 5603 5599 5597 5596 5598 5601 5607 5614 5622 5632 5642 5651 5661 5671 5681 5691 5700 5709 5718 5726 5734 5742 5750 5758 5764 5771 5777 5783
5691 5683 5676 5669 5662 5654 5647 5640 5632 5625 5617 5609 5601 5594 5588 5582 5578 5575 5574 5575 5579 5584 5592 5600 5610 5620 5631 5642 5653 5663 5675 5685 5695 5705 5714 5723 5731 5740 5747 5754 5762 5769 5775
5682 5674 5666 5658 5651 5643 5635 5627 5618 5610 5601 5593 5585 5577 5571 5565 5559 5556 5553 5553 5557 5563 5571 5579 5589 5600 5611 5623 5635 5646 5658 5669 5681 5692 5702 5711 5720 5729 5737 5744 5752 5759 5766
5673 5664 5656 5648 5640 5632 5624 5615 5605 5596 5587 5578 5570 5562 5555 5549 5543 5538 5535 5534 5538 5545 5553 5562 5572 5583 5594 5606 5618 5629 5642 5654 5667 5679 5691 5700 5708 5716 5725 5733 5740 5749 5756
5664 5656 5647 5639 5631 5622 5613 5603 5594 5584 5575 5566 5558 5550 5542 5535 5528 5523 5520 5520 5523 5530 5537 5546 5557 5568 5579 5591 5604 5616 5628 5639 5650 5663 5676 5686 5696 5705 5714 5722 5731 5739 5747
5657 5648 5639 5630 5622 5613 5603 5594 5584 5574 5565 5556 5548 5540 5532 5525 5518 5513 5510 5510 5513 5519 5525 5535 5546 5556 5566 5577 5589 5600 5613 5625 5637 5649 5662 5674 5684 5694 5703 5712 5720 5729 5737
5650 5641 5632 5623 5614 5605 5595 5585 5575 5566 5557 5548 5540 5532 5524 5517 5512 5507 5505 5504 5507 5511 5518 5527 5536 5546 5556 5567 5577 5588 5599 5611 5623 5636 5649 5661 5673 5683 5693 5701 5710 5719 5728
5643 5634 5625 5616 5607 5597 5587 5578 5568 5559 5551 5542 5534 5526 5519 5512 5507 5504 5502 5502 5503 5508 5514 5522 5530 5539 5548 5558 5568 5578 5588 5600 5612 5624 5637 5649 5662 5673 5682 5691 5699 5709 5717
5637 5628 5619 5610 5600 5591 5581 5571 5563 5554 5546 5537 5529 5522 5515 5510 5505 5503 5501 5501 5502 5506 5512 5519 5526 5533 5541 5550 5560 5570 5580 5591 5603 5615 5627 5639 5650 5661 5671 5680 5690 5698 5708
5631 5622 5613 5604 5595 5585 5575 5566 5558 5550 5542 5534 5526 5519 5513 5509 5505 5503 5502 5502 5504 5507 5512 5518 5524 5530 5537 5545 5554 5563 5573 5583 5594 5605 5616 5628 5639 5651 5661 5671 5681 5690 5698
5626 5617 5608 5600 5590 5581 5571 5562 5554 5546 5539 5531 5525 5518 5513 5509 5506 5504 5504 5504 5506 5509 5513 5518 5523 5529 5535 5542 5550 5558 5566 5576 5586 5596 5607 5618 5630 5641 5652 5661 5672 5681 5690
5622 5613 5604 5596 5586 5577 5568 5559 5551 5544 5537 5530 5524 5518 5513 5510 5507 5506 5505 5506 5508 5511 5515 5518 5523 5528 5534 5540 5547 5553 5561 5569 5578 5587 5598 5609 5621 5632 5642 5653 5663 5673 5683
5618 5610 5601 5592 5583 5574 5565 5557 5549 5542 5535 5529 5524 5518 5514 5511 5509 5508 5508 5508 5510 5513 5516 5519 5523 5528 5533 5539 5545 5551 5557 5564 5572 5580 5590 5601 5612 5623 5634 5645 5655 5666 5675
5615 5606 5598 5590 5581 5572 5563 5555 5548 5541 5535 5530 5524 5520 5516 5513 5511 5511 5510 5511 5513 5515 5518 5521 5524 5528 5533 5538 5543 5548 5554 5560 5567 5575 5583 5593 5603 5615 5626 5637 5648 5659 5669
5612 5604 5595 5588 5579 5571 5563 5555 5548 5541 5535 5530 5525 5521 5518 5516 5514 5513 5513 5513 5515 5517 5519 5522 5525 5529 5532 5537 5541 5546 5551 5557 5563 5569 5577 5587 5597 5607 5618 5630 5641 5651 5661
5610 5601 5593 5586 5578 5570 5562 5555 5548 5541 5535 5530 5526 5522 5519 5517 5516 5515 5515 5515 5516 5518 5520 5522 5525 5528 5531 5535 5539 5543 5548 5553 5559 5565 5572 5581 5591 5601 5612 5623 5634 5644 5654
5608 5599 5592 5584 5577 5570 5562 5555 5548 5542 5536 5531 5527 5523 5520 5518 5517 5516 5516 5516 5517 5518 5519 5521 5524 5526 5529 5532 5536 5540 5544 5549 5554 5560 5567 5575 5584 5594 5605 5616 5627 5637 5647
5605 5598 5590 5583 5577 5570 5562 5555 5549 5543 5537 5532 5528 5524 5521 5519 5517 5516 5516 5516 5516 5517 5518 5520 5522 5524 5526 5529 5532 5536 5540 5544 5549 5555 5561 5569 5579 5588 5599 5610 5621 5631 5641
5603 5596 5589 5582 5576 5570 5563 5556 5550 5544 5538 5533 5529 5525 5522 5520 5518 5517 5516 5516 5516 5516 5517 5518 5519 5520 5523 5525 5527 5531 5535 5539 5544 5550 5556 5564 5574 5584 5594 5605 5616 5627 5637
5601 5594 5587 5581 5576 5570 5564 5557 5551 5545 5540 5535 5531 5527 5524 5521 5519 5517 5516 5515 5514 5514 5514 5515 5516 5517 5519 5521 5523 5526 5530 5534 5539 5546 5553 5561 5570 5580 5591 5602 5612 5623 5633
5599 5592 5586 5580 5575 5570 5564 5558 5552 5547 5542 5537 5533 5529 5525 5522 5520 5518 5516 5514 5513 5512 5512 5512 5513 5515 5517 5518 5520 5523 5526 5530 5535 5542 5549 5559 5569 5579 5589 5599 5610 5620 5628
5596 5590 5584 5579 5575 5570 5565 5560 5554 5549 5544 5540 5535 5531 5527 5524 5521 5518 5516 5514 5513 5512 5511 5512 5512 5514 5515 5517 5519 5522 5525 5530 5535 5542 5550 5559 5569 5578 5588 5598 5608 5617 5625